�������l�o���
Date,Time,MP-1(��Sv/h),MP-2(��Sv/h),MP-3(��Sv/h),MP-4(��Sv/h),MP-5(��Sv/h),MP-6(��Sv/h),MP-7(��Sv/h),MP-8(��Sv/h),����,����(m/s),���J
2016/12/25,00:00,1.083,1.815,1.184,2.060,1.414,0.561,1.027,0.954,���k��,4.7,��
2016/12/25,00:10,1.081,1.811,1.182,2.059,1.413,0.560,1.028,0.956,���k��,4.3,��
2016/12/25,00:20,1.086,1.813,1.184,2.057,1.415,0.563,1.028,0.958,���k��,3.8,��
2016/12/25,00:30,1.083,1.814,1.183,2.061,1.415,0.562,1.028,0.956,��,3.9,��
2016/12/25,00:40,1.081,1.811,1.181,2.060,1.415,0.560,1.028,0.956,��,3.4,��
2016/12/25,00:50,1.083,1.812,1.184,2.059,1.415,0.562,1.029,0.955,��,2.6,��
2016/12/25,01:00,1.084,1.810,1.183,2.058,1.414,0.563,1.028,0.955,��,1.9,��
2016/12/25,01:10,1.083,1.814,1.182,2.060,1.417,0.563,1.029,0.954,��,1.7,��
2016/12/25,01:20,1.081,1.812,1.183,2.061,1.414,0.563,1.029,0.957,���k��,1.5,��
2016/12/25,01:30,1.083,1.813,1.182,2.058,1.416,0.562,1.029,0.955,�k��,1.2,��
2016/12/25,01:40,1.080,1.812,1.178,2.056,1.415,0.562,1.030,0.956,�k�k��,2.5,��
2016/12/25,01:50,1.084,1.811,1.184,2.056,1.417,0.561,1.028,0.954,�k�k��,3.7,��
2016/12/25,02:00,1.082,1.813,1.181,2.059,1.415,0.561,1.028,0.957,�k��,2.6,��
2016/12/25,02:10,1.082,1.813,1.181,2.057,1.415,0.561,1.027,0.955,�k��,1.7,��
2016/12/25,02:20,1.083,1.811,1.180,2.058,1.415,0.560,1.028,0.955,�k��,1.2,��
2016/12/25,02:30,1.083,1.811,1.179,2.060,1.413,0.560,1.026,0.956,���k��,3.0,��
2016/12/25,02:40,1.083,1.810,1.181,2.060,1.414,0.562,1.028,0.956,���k��,4.4,��
2016/12/25,02:50,1.080,1.813,1.183,2.057,1.416,0.561,1.029,0.954,���k��,5.1,��
2016/12/25,03:00,1.079,1.815,1.181,2.060,1.413,0.560,1.029,0.956,�k��,4.2,��
2016/12/25,03:10,1.081,1.813,1.184,2.057,1.417,0.560,1.028,0.956,�k��,3.5,��
2016/12/25,03:20,1.081,1.813,1.183,2.057,1.413,0.561,1.029,0.956,�k��,3.8,��
2016/12/25,03:30,1.082,1.810,1.183,2.060,1.416,0.561,1.029,0.954,�k��,4.2,��
2016/12/25,03:40,1.080,1.811,1.182,2.058,1.413,0.561,1.027,0.954,�k��,3.9,��
2016/12/25,03:50,1.079,1.811,1.183,2.059,1.413,0.561,1.028,0.954,�k��,4.0,��
2016/12/25,04:00,1.082,1.807,1.181,2.059,1.415,0.562,1.026,0.956,�k��,4.0,��
2016/12/25,04:10,1.081,1.814,1.181,2.061,1.414,0.561,1.029,0.954,��,4.0,��
2016/12/25,04:20,1.080,1.813,1.179,2.056,1.415,0.561,1.029,0.955,���쐼,2.6,��
2016/12/25,04:30,1.080,1.812,1.182,2.057,1.412,0.560,1.029,0.956,��,1.9,��
2016/12/25,04:40,1.081,1.810,1.181,2.059,1.411,0.560,1.027,0.953,�k��,1.5,��
2016/12/25,04:50,1.080,1.811,1.179,2.059,1.411,0.560,1.029,0.953,�k��,1.2,��
2016/12/25,05:00,1.080,1.812,1.179,2.056,1.413,0.560,1.026,0.954,���k��,0.6,��
2016/12/25,05:10,1.081,1.811,1.179,2.057,1.412,0.560,1.028,0.955,��,0.9,��
2016/12/25,05:20,1.077,1.810,1.180,2.060,1.412,0.561,1.028,0.956,��,2.6,��
2016/12/25,05:30,1.081,1.808,1.181,2.055,1.414,0.559,1.027,0.957,��,4.4,��
2016/12/25,05:40,1.080,1.812,1.179,2.056,1.409,0.560,1.027,0.957,��,4.6,��
2016/12/25,05:50,1.080,1.808,1.181,2.056,1.412,0.559,1.029,0.955,��,3.2,��
2016/12/25,06:00,1.080,1.805,1.180,2.055,1.411,0.560,1.029,0.954,��,4.2,��
2016/12/25,06:10,1.078,1.810,1.179,2.057,1.410,0.561,1.028,0.953,���k��,4.2,��
2016/12/25,06:20,1.079,1.807,1.180,2.056,1.414,0.560,1.026,0.955,���k��,4.9,��
2016/12/25,06:30,1.079,1.808,1.181,2.054,1.411,0.561,1.027,0.955,���k��,4.1,��
2016/12/25,06:40,1.079,1.810,1.179,2.055,1.413,0.560,1.027,0.954,��,3.0,��
2016/12/25,06:50,1.078,1.806,1.179,2.053,1.411,0.559,1.030,0.954,���쐼,3.1,��
2016/12/25,07:00,1.079,1.807,1.180,2.055,1.412,0.561,1.028,0.956,��,4.0,��
2016/12/25,07:10,1.080,1.807,1.182,2.054,1.411,0.562,1.029,0.955,��,3.1,��
2016/12/25,07:20,1.078,1.808,1.180,2.057,1.408,0.560,1.028,0.955,���쐼,3.3,��
2016/12/25,07:30,1.080,1.810,1.180,2.057,1.412,0.560,1.028,0.956,��,4.5,��
2016/12/25,07:40,1.080,1.805,1.177,2.056,1.412,0.563,1.027,0.954,��,4.7,��
2016/12/25,07:50,1.080,1.809,1.178,2.057,1.410,0.561,1.028,0.954,���k��,4.9,��
2016/12/25,08:00,1.081,1.811,1.178,2.055,1.409,0.561,1.027,0.955,���k��,5.3,��
2016/12/25,08:10,1.082,1.809,1.177,2.056,1.413,0.560,1.030,0.955,���k��,5.0,��
2016/12/25,08:20,1.081,1.811,1.180,2.054,1.409,0.561,1.029,0.957,���k��,5.0,��
2016/12/25,08:30,1.081,1.810,1.180,2.056,1.414,0.560,1.032,0.956,���k��,4.1,��
2016/12/25,08:40,1.082,1.808,1.180,2.055,1.415,0.562,1.030,0.956,���k��,3.6,��
2016/12/25,08:50,1.081,1.811,1.184,2.058,1.412,0.561,1.030,0.955,��,3.3,��
2016/12/25,09:00,1.084,1.808,1.183,2.063,1.413,0.561,1.031,0.956,��,4.2,��
2016/12/25,09:10,1.085,1.808,1.183,2.061,1.415,0.563,1.032,0.956,��,3.6,��
2016/12/25,09:20,1.085,1.807,1.184,2.060,1.416,0.562,1.031,0.956,��,4.0,��
2016/12/25,09:30,1.086,1.811,1.184,2.061,1.418,0.562,1.032,0.957,��,4.5,��
2016/12/25,09:40,1.086,1.813,1.186,2.061,1.416,0.561,1.034,0.958,���k��,5.0,��
2016/12/25,09:50,1.085,1.816,1.185,2.061,1.416,0.564,1.033,0.959,���k��,3.6,��
2016/12/25,10:00,1.087,1.818,1.188,2.062,1.417,0.562,1.031,0.957,��,3.2,��
2016/12/25,10:10,1.085,1.819,1.186,2.064,1.416,0.562,1.030,0.958,���k��,2.8,��
2016/12/25,10:20,1.086,1.817,1.188,2.064,1.417,0.566,1.031,0.958,�k��,2.8,��
2016/12/25,10:30,1.087,1.816,1.188,2.067,1.419,0.564,1.033,0.959,�k��,3.5,��
2016/12/25,10:40,1.088,1.816,1.187,2.066,1.417,0.563,1.030,0.960,�k�k��,3.3,��
2016/12/25,10:50,1.088,1.818,1.189,2.065,1.417,0.563,1.031,0.958,�k��,2.9,��
2016/12/25,11:00,1.090,1.813,1.187,2.068,1.421,0.564,1.030,0.958,�k��,3.0,��
2016/12/25,11:10,1.089,1.816,1.188,2.065,1.419,0.564,1.032,0.957,��,3.5,��
2016/12/25,11:20,1.090,1.818,1.188,2.065,1.422,0.565,1.032,0.957,�k��,2.3,��
2016/12/25,11:30,1.093,1.814,1.191,2.066,1.420,0.565,1.033,0.957,�k��,1.9,��
2016/12/25,11:40,1.090,1.816,1.188,2.065,1.425,0.563,1.033,0.960,�k��,3.1,��
2016/12/25,11:50,1.093,1.816,1.188,2.067,1.424,0.565,1.031,0.960,�k�k��,1.7,��
2016/12/25,12:00,1.089,1.818,1.189,2.068,1.421,0.566,1.033,0.960,�k��,2.0,��
2016/12/25,12:10,1.093,1.816,1.187,2.068,1.422,0.566,1.032,0.960,�k��,2.0,��
2016/12/25,12:20,1.090,1.819,1.186,2.067,1.423,0.564,1.032,0.960,�k��,3.7,��
2016/12/25,12:30,1.093,1.815,1.190,2.067,1.423,0.567,1.032,0.960,�k��,2.3,��
2016/12/25,12:40,1.096,1.814,1.187,2.067,1.420,0.565,1.033,0.959,���k��,6.0,��
2016/12/25,12:50,1.096,1.818,1.188,2.063,1.422,0.566,1.034,0.961,���k��,4.7,��
2016/12/25,13:00,1.094,1.819,1.189,2.069,1.423,0.565,1.031,0.959,��,5.0,��
2016/12/25,13:10,1.095,1.819,1.190,2.069,1.423,0.566,1.031,0.957,��,4.7,��
2016/12/25,13:20,1.094,1.819,1.189,2.068,1.421,0.565,1.033,0.956,���k��,3.5,��
2016/12/25,13:30,1.094,1.818,1.191,2.068,1.421,0.566,1.032,0.955,��,5.2,��
2016/12/25,13:40,1.093,1.815,1.187,2.068,1.423,0.564,1.032,0.955,���쐼,6.1,��
2016/12/25,13:50,1.091,1.819,1.190,2.072,1.425,0.566,1.034,0.958,��,6.3,��
2016/12/25,14:00,1.093,1.821,1.187,2.070,1.424,0.567,1.031,0.956,��,6.3,��
2016/12/25,14:10,1.094,1.824,1.193,2.067,1.425,0.565,1.034,0.957,��,5.4,��
2016/12/25,14:20,1.093,1.819,1.191,2.071,1.428,0.567,1.033,0.957,��,7.4,��
2016/12/25,14:30,1.096,1.819,1.190,2.069,1.424,0.566,1.034,0.956,���쐼,7.8,��
2016/12/25,14:40,1.093,1.818,1.191,2.070,1.427,0.566,1.033,0.957,���쐼,6.8,��
2016/12/25,14:50,1.095,1.816,1.191,2.071,1.428,0.566,1.034,0.958,��,5.6,��
2016/12/25,15:00,1.093,1.819,1.192,2.070,1.426,0.567,1.033,0.958,��,5.2,��
2016/12/25,15:10,1.095,1.820,1.196,2.075,1.425,0.567,1.032,0.959,���k��,5.2,��
2016/12/25,15:20,1.093,1.823,1.192,2.068,1.426,0.568,1.033,0.960,���k��,7.1,��
2016/12/25,15:30,1.091,1.823,1.195,2.071,1.427,0.567,1.034,0.960,�k��,4.4,��
2016/12/25,15:40,1.093,1.825,1.192,2.069,1.426,0.567,1.031,0.960,�k�k��,2.2,��
2016/12/25,15:50,1.094,1.827,1.194,2.071,1.423,0.565,1.031,0.960,�k,2.6,��
2016/12/25,16:00,1.093,1.826,1.191,2.071,1.422,0.568,1.035,0.959,�k�k��,4.2,��
2016/12/25,16:10,1.092,1.821,1.193,2.073,1.424,0.566,1.034,0.957,�k�k��,3.0,��
2016/12/25,16:20,1.093,1.823,1.193,2.068,1.426,0.566,1.035,0.959,�k,2.3,��
2016/12/25,16:30,1.092,1.825,1.189,2.068,1.425,0.565,1.034,0.959,�k�k��,2.5,��
2016/12/25,16:40,1.094,1.824,1.192,2.067,1.427,0.567,1.032,0.958,�k�k��,1.9,��
2016/12/25,16:50,1.092,1.821,1.191,2.067,1.422,0.566,1.031,0.957,�k�k��,1.2,��
2016/12/25,17:00,1.094,1.824,1.192,2.065,1.426,0.566,1.032,0.957,-,CALM,��
2016/12/25,17:10,1.091,1.820,1.191,2.063,1.428,0.564,1.032,0.957,-,CALM,��
2016/12/25,17:20,1.091,1.822,1.186,2.068,1.424,0.565,1.033,0.958,�쐼,1.7,��
2016/12/25,17:30,1.091,1.820,1.187,2.065,1.428,0.566,1.032,0.960,��,3.8,��
2016/12/25,17:40,1.091,1.823,1.189,2.067,1.426,0.566,1.034,0.958,��,4.1,��
2016/12/25,17:50,1.092,1.818,1.193,2.068,1.426,0.565,1.033,0.957,���k��,4.3,��
2016/12/25,18:00,1.090,1.822,1.190,2.066,1.424,0.565,1.032,0.959,���k��,4.2,��
2016/12/25,18:10,1.091,1.822,1.188,2.065,1.422,0.564,1.032,0.960,���k��,3.7,��
2016/12/25,18:20,1.090,1.823,1.189,2.066,1.426,0.564,1.031,0.958,���k��,4.9,��
2016/12/25,18:30,1.092,1.820,1.188,2.066,1.426,0.566,1.032,0.957,���k��,2.6,��
2016/12/25,18:40,1.090,1.820,1.191,2.066,1.424,0.564,1.033,0.957,���k��,3.2,��
2016/12/25,18:50,1.090,1.820,1.190,2.065,1.425,0.564,1.030,0.958,���k��,2.9,��
2016/12/25,19:00,1.089,1.819,1.188,2.063,1.426,0.564,1.030,0.957,���k��,3.1,��
2016/12/25,19:10,1.089,1.820,1.186,2.065,1.425,0.564,1.032,0.955,���k��,3.0,��
2016/12/25,19:20,1.089,1.822,1.187,2.065,1.425,0.562,1.030,0.958,��,4.4,��
2016/12/25,19:30,1.089,1.818,1.189,2.066,1.424,0.564,1.032,0.957,���k��,5.3,��
2016/12/25,19:40,1.088,1.818,1.187,2.064,1.425,0.565,1.031,0.957,���k��,5.1,��
2016/12/25,19:50,1.089,1.822,1.185,2.067,1.424,0.563,1.030,0.956,���k��,5.0,��
2016/12/25,20:00,1.089,1.820,1.185,2.065,1.424,0.564,1.026,0.957,��,4.3,��
2016/12/25,20:10,1.086,1.817,1.187,2.064,1.421,0.564,1.032,0.957,��,4.3,��
2016/12/25,20:20,1.088,1.820,1.188,2.064,1.425,0.563,1.029,0.957,��,4.4,��
2016/12/25,20:30,1.086,1.818,1.187,2.065,1.423,0.566,1.030,0.957,��,4.5,��
2016/12/25,20:40,1.088,1.821,1.186,2.068,1.424,0.565,1.030,0.958,��,4.7,��
2016/12/25,20:50,1.088,1.820,1.188,2.066,1.427,0.561,1.029,0.957,��,4.5,��
2016/12/25,21:00,1.088,1.823,1.186,2.065,1.423,0.564,1.029,0.957,��,5.7,��
2016/12/25,21:10,1.088,1.819,1.187,2.064,1.421,0.563,1.029,0.956,��,6.2,��
2016/12/25,21:20,1.087,1.820,1.187,2.062,1.423,0.563,1.028,0.955,��,6.3,��
2016/12/25,21:30,1.089,1.817,1.189,2.065,1.424,0.564,1.030,0.956,���k��,5.6,��
2016/12/25,21:40,1.086,1.824,1.186,2.064,1.420,0.563,1.030,0.956,���k��,4.8,��
2016/12/25,21:50,1.086,1.821,1.188,2.064,1.423,0.565,1.030,0.958,���k��,4.3,��
2016/12/25,22:00,1.088,1.820,1.186,2.066,1.424,0.564,1.029,0.957,�k��,4.0,��
2016/12/25,22:10,1.088,1.818,1.184,2.063,1.423,0.563,1.029,0.957,�k��,4.8,��
2016/12/25,22:20,1.088,1.818,1.187,2.062,1.424,0.562,1.026,0.958,�k��,4.2,��
2016/12/25,22:30,1.088,1.818,1.183,2.065,1.421,0.563,1.030,0.955,���k��,3.6,��
2016/12/25,22:40,1.087,1.820,1.186,2.065,1.421,0.562,1.029,0.956,���k��,3.7,��
2016/12/25,22:50,1.086,1.818,1.183,2.062,1.422,0.562,1.030,0.956,���k��,3.9,��
2016/12/25,23:00,1.087,1.817,1.187,2.060,1.421,0.563,1.029,0.955,���k��,2.6,��
2016/12/25,23:10,1.087,1.818,1.187,2.061,1.422,0.562,1.030,0.955,�k��,4.0,��
2016/12/25,23:20,1.087,1.819,1.186,2.064,1.421,0.563,1.029,0.955,�k��,5.6,��
2016/12/25,23:30,1.088,1.821,1.185,2.063,1.420,0.563,1.031,0.956,�k��,4.3,��
2016/12/25,23:40,1.086,1.816,1.183,2.061,1.422,0.562,1.029,0.956,�k��,3.4,��
2016/12/25,23:50,1.088,1.822,1.186,2.061,1.423,0.562,1.031,0.956,���k��,3.5,��
